"Pseudo-MPEC" for 2LL2421

Created 2022 Nov 27 2:22:01 UT using Find_Orb

Click here for an explanation of pseudo-MPECs

 
 Astrometry: 
     2LL2421*KC2022 11 22!]WJa(uj:oTDxP4ItK)AstrometryuH*redacted;'?ergJN$[xeW94
     2LL2421 KC2022 11 22MV2B0Wu(-UpVOA:$i2.KQNwrxKv3#bQPclickrds\AH(#here49,W94
     2LL2421 KC2022 11 22VS0ye$pFhforxMd2Q='x'T4VR_YAxeQQOPexplanationpH/fn1TW94

Station data:
(W94) AMACS1, San Pedro de Atacama  (S22.953074 W68.179810)  Chile.  Observers
   A. Maury, G. Attard. Measurers A. Maury, G. Attard, D. Parrott. 0.28-m
   f/2.2 Schmidt + CCD.

Orbital elements:  2LL2421
   Perihelion 2022 Nov 26.28904 +/- 41.9 TT =  6:56:13 (JD 2459909.78904)
Epoch 2022 Nov 22.0 TT = JDT 2459905.5   Earth MOID: 0.0066   AutoNEOCP
M 355.94386574 +/- 48               (J2000 ecliptic)
n   0.94569650 +/- 0.572            Peri.  188.90385 +/- 70
a   1.02794100 +/- 0.415            Node   234.25923 +/- 17
e   0.0317414 +/- 0.223             Incl.    1.48404 +/- 19
P   1.04/380.66d           H 28.4   G  0.15   U 12.4  SR
q 0.99531271 +/- 0.359    Q 1.06056929 +/- 2.51
From 3 observations 2022 Nov. 22 (18.1 min); mean residual 1".18
Residuals in arcseconds: 
221122 W94  1.0-  .59+    221122 W94  2.0+  1.2-    221122 W94  1.0-  .61+    

Ephemerides (geocentric):
Date (UTC) HH   RA             Dec           delta  r     elong  mag " sig PA
---- --------  ------------   ------------  ------ ------ -----  --- --------
2022 11 27 02  01 34 02.199   -11 00 23.97  .01294 0.9953 130.1 20.8 937'  10
2022 11 27 03  01 34 21.272   -11 02 47.96  .01295 0.9953 130.0 20.8 951'  10
2022 11 27 04  01 34 40.326   -11 05 11.49  .01296 0.9953 130.0 20.8 964'   9
2022 11 27 05  01 34 59.361   -11 07 34.54  .01297 0.9953 130.0 20.8 976'   9
2022 11 27 06  01 35 18.376   -11 09 57.12  .01299 0.9953 130.0 20.8 988'   8
2022 11 27 07  01 35 37.373   -11 12 19.24  .01300 0.9953 130.0 20.8 999'   8
2022 11 27 08  01 35 56.351   -11 14 40.89  .01301 0.9953 130.0 20.8  17d   8
2022 11 27 09  01 36 15.309   -11 17 02.07  .01302 0.9953 130.0 20.8  17d   8
2022 11 27 10  01 36 34.249   -11 19 22.78  .01304 0.9953 130.0 20.8  17d   7
2022 11 27 11  01 36 53.169   -11 21 43.03  .01305 0.9953 130.0 20.8  17d   7
2022 11 27 12  01 37 12.070   -11 24 02.81  .01306 0.9953 130.0 20.8  17d   7
2022 11 27 13  01 37 30.952   -11 26 22.12  .01307 0.9953 130.0 20.8  18d   7
2022 11 27 14  01 37 49.815   -11 28 40.98  .01309 0.9953 130.0 20.8  18d   6
2022 11 27 15  01 38 08.659   -11 30 59.36  .01310 0.9953 130.0 20.8  18d   6
2022 11 27 16  01 38 27.484   -11 33 17.29  .01311 0.9953 130.0 20.8  18d   6
2022 11 27 17  01 38 46.289   -11 35 34.75  .01312 0.9953 130.0 20.8  18d   6
2022 11 27 18  01 39 05.075   -11 37 51.75  .01314 0.9953 130.0 20.8  18d   6
2022 11 27 19  01 39 23.843   -11 40 08.29  .01315 0.9953 130.0 20.8  18d   6
2022 11 27 20  01 39 42.591   -11 42 24.37  .01316 0.9953 130.0 20.8  19d   6
2022 11 27 21  01 40 01.319   -11 44 39.99  .01317 0.9953 130.0 20.8  19d   6
2022 11 27 22  01 40 20.029   -11 46 55.15  .01319 0.9953 130.0 20.8  19d   6
2022 11 27 23  01 40 38.719   -11 49 09.85  .01320 0.9953 130.0 20.8  19d   6
2022 11 28 00  01 40 57.390   -11 51 24.10  .01321 0.9953 130.0 20.8  19d   6
2022 11 28 01  01 41 16.042   -11 53 37.88  .01322 0.9953 130.0 20.8  19d   6
2022 11 28 02  01 41 34.675   -11 55 51.22  .01324 0.9953 130.0 20.8  19d   6
2022 11 28 03  01 41 53.289   -11 58 04.09  .01325 0.9953 129.9 20.8  19d   6
2022 11 28 04  01 42 11.883   -12 00 16.51  .01326 0.9953 129.9 20.8  20d   6
2022 11 28 05  01 42 30.458   -12 02 28.48  .01327 0.9953 129.9 20.8  20d   6
2022 11 28 06  01 42 49.014   -12 04 40.00  .01329 0.9953 129.9 20.8  20d   6
2022 11 28 07  01 43 07.551   -12 06 51.06  .01330 0.9953 129.9 20.8  20d   6
2022 11 28 08  01 43 26.068   -12 09 01.67  .01331 0.9953 129.9 20.8  20d   6
2022 11 28 09  01 43 44.566   -12 11 11.83  .01332 0.9953 129.9 20.8  20d   6
2022 11 28 10  01 44 03.045   -12 13 21.54  .01334 0.9953 129.9 20.8  20d   6
2022 11 28 11  01 44 21.504   -12 15 30.80  .01335 0.9953 129.9 20.8  21d   6
2022 11 28 12  01 44 39.944   -12 17 39.62  .01336 0.9953 129.9 20.8  21d   6
2022 11 28 13  01 44 58.365   -12 19 47.98  .01338 0.9953 129.9 20.8  21d   6
2022 11 28 14  01 45 16.767   -12 21 55.90  .01339 0.9953 129.9 20.8  21d   6
2022 11 28 15  01 45 35.149   -12 24 03.37  .01340 0.9953 129.9 20.8  21d   6
2022 11 28 16  01 45 53.512   -12 26 10.40  .01341 0.9953 129.9 20.8  21d   6
2022 11 28 17  01 46 11.856   -12 28 16.98  .01343 0.9953 129.9 20.8  22d   6
2022 11 28 18  01 46 30.180   -12 30 23.12  .01344 0.9953 129.9 20.8  22d   6
2022 11 28 19  01 46 48.485   -12 32 28.81  .01345 0.9953 129.9 20.8  22d   6
2022 11 28 20  01 47 06.771   -12 34 34.07  .01347 0.9953 129.9 20.9  22d   6
2022 11 28 21  01 47 25.037   -12 36 38.88  .01348 0.9953 129.9 20.9  22d   6
2022 11 28 22  01 47 43.284   -12 38 43.25  .01349 0.9953 129.9 20.9  22d   6
2022 11 28 23  01 48 01.512   -12 40 47.19  .01351 0.9953 129.8 20.9  23d   5
2022 11 29 00  01 48 19.720   -12 42 50.68  .01352 0.9953 129.8 20.9  23d   5
2022 11 29 01  01 48 37.909   -12 44 53.74  .01353 0.9953 129.8 20.9  23d   5